Overview Statistics Trail Chart Weather Telemetry Raw packets
 

This is the latest recevied weather packets stored in our database for station/object KN4AN. If no packets are shown the sender has not sent any weather packets the latest 10 day(s).

<< 3 4 5 6 7 8 9 >>
Time Temp. Humidity Pressure Rain* Wind** Luminosity Snow
1788542266 36.67° C 39% 1015.5 hPa 0 mm - 715 W/m² -
1788541961 36.67° C 41% 1015.6 hPa 0 mm - 190 W/m² -
1788541658 36.67° C 40% 1015.5 hPa 0 mm - 777 W/m² -
1788541353 36.11° C 41% 1015.7 hPa 0 mm - 750 W/m² -
1788541053 36.11° C 43% 1015.9 hPa 0 mm - 475 W/m² -
1788540747 36.67° C 43% 1015.7 hPa 0 mm - 200 W/m² -
1788540447 36.67° C 42% 1015.9 hPa 0 mm - 241 W/m² -
1788540141 36.11° C 42% 1015.9 hPa 0 mm - 365 W/m² -
1788539838 36.11° C 42% 1015.9 hPa 0 mm - 634 W/m² -
1788539533 36.11° C 41% 1016.1 hPa 0 mm - 779 W/m² -
1788539232 36.11° C 42% 1015.9 hPa 0 mm - 744 W/m² -
1788538927 36.11° C 43% 1016.2 hPa 0 mm - 545 W/m² -
1788538623 36.11° C 44% 1016.4 hPa 0 mm - 719 W/m² -
1788538318 35.56° C 45% 1016.2 hPa 0 mm - 743 W/m² -
1788538013 35° C 46% 1016.4 hPa 0 mm - 741 W/m² -
1788537709 34.44° C 50% 1016.3 hPa 0 mm - 199 W/m² -
1788537404 35° C 49% 1016.3 hPa 0 mm - 688 W/m² -
1788537103 35.56° C 49% 1016.3 hPa 0 mm - 201 W/m² -
1788536801 35° C 50% 1016.3 hPa 0 mm - 665 W/m² -
1788536496 34.44° C 51% 1016.4 hPa 0 mm - 687 W/m² -
1788536191 35° C 50% 1016.5 hPa 0 mm - 649 W/m² -
1788535887 35° C 50% 1016.4 hPa 0 mm - 640 W/m² -
1788535583 34.44° C 50% 1016.6 hPa 0 mm - 637 W/m² -
1788535278 34.44° C 52% 1016.7 hPa 0 mm - 631 W/m² -
1788534973 34.44° C 52% 1016.7 hPa 0 mm - 618 W/m² -

* Rain latest hour (hover to see other rain measurements)
** Current wind speed in m/s (hover to see current wind gust speed)